{"data":{"norad_id":57974,"epoch":"2026-09-20T20:22:11.938656Z","epoch_age_seconds":107479,"freshness":"FRESH","line1":"1 57974U 23151L   26263.84874929  .00000084  00000+0  12590-4 0  9996","line2":"2 57974  43.0037 313.8260 0001336 268.6778  91.3921 15.27578102165613","mean_motion":15.27578102,"eccentricity":0.0001336,"inclination_deg":43.0037,"raan_deg":313.826,"arg_perigee_deg":268.6778,"mean_anomaly_deg":91.3921,"bstar":1.259e-5,"rev_number":16561,"period_min":94.266865839112,"perigee_km":482.13812411862,"apogee_km":483.97143456206,"semimajor_km":6861.1917793403,"source":"CELESTRAK","updated_at":"2026-09-21T09:00:33.750438Z"}}